TimeCST,TemperatureF,Dew PointF,Humidity,Sea Level PressureIn,VisibilityMPH,Wind Direction,Wind SpeedMPH,Gust SpeedMPH,PrecipitationIn,Events,Conditions,WindDirDegrees,DateUTC
12:15 AM,24.4,16.7,72,30.33,10.0,NNE,8.1,-,N/A,,Overcast,20,2013-03-02 06:15:00
12:35 AM,24.3,16.5,72,30.34,10.0,NNE,10.4,-,N/A,,Overcast,30,2013-03-02 06:35:00
12:55 AM,23.9,15.8,71,30.33,10.0,NNE,10.4,-,N/A,,Overcast,20,2013-03-02 06:55:00
1:15 AM,23.9,16.0,72,30.33,10.0,North,3.5,9.2,N/A,,Overcast,10,2013-03-02 07:15:00
1:35 AM,23.7,16.0,72,30.33,10.0,NNE,10.4,-,N/A,,Overcast,30,2013-03-02 07:35:00
1:55 AM,23.5,15.8,72,30.33,10.0,Calm,Calm,-,N/A,,Overcast,0,2013-03-02 07:55:00
2:15 AM,23.5,16.0,73,30.33,10.0,Calm,Calm,-,N/A,,Overcast,0,2013-03-02 08:15:00
2:35 AM,23.4,16.3,75,30.33,10.0,Calm,Calm,-,N/A,,Overcast,0,2013-03-02 08:35:00
3:15 AM,22.6,15.1,73,30.33,10.0,Calm,Calm,-,N/A,,Overcast,0,2013-03-02 09:15:00
3:55 AM,22.1,15.1,74,30.32,10.0,NNE,6.9,-,N/A,,Overcast,20,2013-03-02 09:55:00
4:15 AM,22.1,14.9,74,30.32,10.0,Calm,Calm,-,N/A,,Overcast,0,2013-03-02 10:15:00
4:35 AM,22.1,15.4,76,30.32,10.0,Calm,Calm,-,N/A,,Overcast,0,2013-03-02 10:35:00
4:55 AM,22.1,15.1,74,30.32,10.0,Calm,Calm,-,N/A,,Overcast,0,2013-03-02 10:55:00
5:15 AM,22.1,15.1,74,30.33,10.0,Calm,Calm,-,N/A,,Overcast,0,2013-03-02 11:15:00
5:55 AM,22.1,15.1,74,30.33,10.0,Calm,Calm,-,N/A,,Overcast,0,2013-03-02 11:55:00
6:35 AM,22.1,15.6,76,30.34,10.0,Calm,Calm,-,N/A,,Overcast,0,2013-03-02 12:35:00
6:55 AM,22.1,15.6,76,30.34,10.0,Calm,Calm,-,N/A,,Overcast,0,2013-03-02 12:55:00
7:15 AM,22.1,15.4,76,30.34,7.0,Calm,Calm,-,N/A,,Overcast,0,2013-03-02 13:15:00
7:35 AM,21.9,14.9,74,30.34,7.0,Calm,Calm,-,N/A,,Overcast,0,2013-03-02 13:35:00
7:55 AM,22.1,15.4,76,30.33,7.0,Calm,Calm,-,N/A,,Overcast,0,2013-03-02 13:55:00
8:15 AM,21.7,14.7,74,30.34,7.0,Calm,Calm,-,N/A,,Mostly Cloudy,0,2013-03-02 14:15:00
8:35 AM,23.5,15.6,72,30.34,10.0,Calm,Calm,-,N/A,,Mostly Cloudy,0,2013-03-02 14:35:00
8:55 AM,22.8,15.4,73,30.34,10.0,Calm,Calm,-,N/A,,Overcast,0,2013-03-02 14:55:00
9:15 AM,22.8,15.1,72,30.34,10.0,Calm,Calm,-,N/A,,Overcast,0,2013-03-02 15:15:00
9:35 AM,23.7,16.2,73,30.34,10.0,Calm,Calm,-,N/A,,Mostly Cloudy,0,2013-03-02 15:35:00
9:55 AM,23.9,15.4,70,30.33,10.0,Calm,Calm,-,N/A,,Scattered Clouds,0,2013-03-02 15:55:00
10:15 AM,24.8,16.2,70,30.33,10.0,Calm,Calm,-,N/A,,Clear,0,2013-03-02 16:15:00
10:35 AM,25.9,16.7,68,30.33,10.0,Calm,Calm,-,N/A,,Clear,0,2013-03-02 16:35:00
10:55 AM,26.6,16.2,65,30.31,10.0,Calm,Calm,-,N/A,,Clear,0,2013-03-02 16:55:00
11:15 AM,27.7,17.2,65,30.30,10.0,Calm,Calm,-,N/A,,Clear,0,2013-03-02 17:15:00
11:35 AM,28.0,17.2,64,30.30,10.0,Calm,Calm,-,N/A,,Clear,0,2013-03-02 17:35:00
11:55 AM,29.1,17.6,62,30.30,10.0,Calm,Calm,-,N/A,,Clear,0,2013-03-02 17:55:00
12:15 PM,29.3,17.1,60,30.29,10.0,Calm,Calm,-,N/A,,Clear,0,2013-03-02 18:15:00
12:35 PM,30.7,17.8,59,30.28,10.0,Calm,Calm,-,N/A,,Clear,0,2013-03-02 18:35:00
12:55 PM,30.2,16.7,57,30.28,10.0,Calm,Calm,-,N/A,,Clear,0,2013-03-02 18:55:00
1:15 PM,31.1,17.1,56,30.27,10.0,Calm,Calm,-,N/A,,Clear,0,2013-03-02 19:15:00
1:35 PM,32.0,16.3,52,30.26,10.0,Calm,Calm,-,N/A,,Clear,0,2013-03-02 19:35:00
1:55 PM,32.0,16.3,52,30.25,10.0,Calm,Calm,-,N/A,,Clear,0,2013-03-02 19:55:00
2:15 PM,32.7,18.1,55,30.23,10.0,Calm,Calm,-,N/A,,Clear,0,2013-03-02 20:15:00
2:35 PM,33.1,17.4,53,30.23,10.0,Calm,Calm,-,N/A,,Scattered Clouds,0,2013-03-02 20:35:00
2:55 PM,33.4,18.3,54,30.23,10.0,Calm,Calm,-,N/A,,Mostly Cloudy,0,2013-03-02 20:55:00
3:15 PM,33.4,18.5,54,30.23,10.0,Calm,Calm,-,N/A,,Overcast,0,2013-03-02 21:15:00
3:35 PM,34.2,19.6,55,30.22,10.0,Calm,Calm,-,N/A,,Overcast,0,2013-03-02 21:35:00
3:55 PM,34.5,19.0,53,30.22,10.0,Calm,Calm,-,N/A,,Overcast,0,2013-03-02 21:55:00
4:15 PM,34.3,19.6,55,30.21,10.0,Calm,Calm,-,N/A,,Overcast,0,2013-03-02 22:15:00
4:35 PM,34.2,19.0,54,30.21,10.0,Calm,Calm,-,N/A,,Overcast,0,2013-03-02 22:35:00
4:55 PM,34.3,19.2,54,30.20,10.0,Calm,Calm,-,N/A,,Overcast,0,2013-03-02 22:55:00
5:15 PM,34.3,18.5,52,30.19,10.0,Calm,Calm,-,N/A,,Overcast,0,2013-03-02 23:15:00
5:35 PM,33.8,20.8,59,30.18,10.0,Calm,Calm,-,N/A,,Overcast,0,2013-03-02 23:35:00
5:55 PM,33.3,20.8,60,30.19,10.0,Calm,Calm,-,N/A,,Overcast,0,2013-03-02 23:55:00
6:15 PM,33.1,21.7,63,30.18,10.0,Calm,Calm,-,N/A,,Overcast,0,2013-03-03 00:15:00
6:35 PM,32.9,21.7,64,30.17,10.0,Calm,Calm,-,N/A,,Overcast,0,2013-03-03 00:35:00
6:55 PM,32.7,22.3,65,30.17,10.0,Calm,Calm,-,N/A,,Overcast,0,2013-03-03 00:55:00
7:15 PM,32.9,22.5,65,30.17,10.0,Calm,Calm,-,N/A,,Overcast,0,2013-03-03 01:15:00
7:35 PM,32.5,22.8,67,30.16,10.0,Calm,Calm,-,N/A,,Overcast,0,2013-03-03 01:35:00
7:55 PM,32.0,23.4,70,30.16,10.0,Calm,Calm,-,N/A,,Mostly Cloudy,0,2013-03-03 01:55:00
8:15 PM,30.7,23.7,75,30.16,10.0,Calm,Calm,-,N/A,,Scattered Clouds,0,2013-03-03 02:15:00
8:35 PM,30.4,23.5,76,30.16,10.0,South,10.4,-,N/A,,Clear,170,2013-03-03 02:35:00
8:55 PM,30.6,23.0,74,30.15,10.0,South,8.1,-,N/A,,Clear,170,2013-03-03 02:55:00
9:15 PM,30.4,23.5,76,30.15,10.0,South,11.5,-,N/A,,Clear,170,2013-03-03 03:15:00
9:35 PM,30.2,23.7,77,30.14,10.0,South,11.5,-,N/A,,Clear,170,2013-03-03 03:35:00
9:55 PM,29.8,23.5,77,30.13,7.0,South,9.2,-,N/A,,Clear,170,2013-03-03 03:55:00
10:15 PM,29.7,23.7,79,30.13,7.0,South,10.4,-,N/A,,Clear,180,2013-03-03 04:15:00
10:35 PM,28.9,23.4,80,30.13,7.0,South,5.8,-,N/A,,Clear,180,2013-03-03 04:35:00
10:55 PM,28.9,23.5,80,30.13,7.0,Calm,Calm,-,N/A,,Clear,0,2013-03-03 04:55:00
11:15 PM,28.6,23.5,81,30.13,7.0,Calm,Calm,-,N/A,,Clear,0,2013-03-03 05:15:00
11:35 PM,28.4,23.4,81,30.12,7.0,Calm,Calm,-,N/A,,Clear,0,2013-03-03 05:35:00
11:55 PM,28.2,23.4,82,30.11,7.0,Calm,Calm,-,N/A,,Clear,0,2013-03-03 05:55:00